TKJ981 LTAC-LTDB

Flight info

Callsign TKJ981
Flight time 0h 50m
Altitude 33000
Route BAKIR1T/03L BAKIR UW75 AZBUL UL601 URGUP UW75 KEMER
Aircraft B738/M-SDE2E3FGHIRWXY/LB1

Departure

Time 2026-05-04 16:11
Airport Esenboğa International Airport (LTAC)

Arrival

Time 2026-05-04 17:01
Airport Çukurova International Airport (LTDB)
Time Latitude Longitude Altitude Speed Heading
2026-05-04 15:38 40.11355 32.98805 3112 ft 0 kts 126°
2026-05-04 16:02 40.11362 32.98792 3112 ft 2 kts 124°
2026-05-04 16:02 40.11379 32.98755 3112 ft 2 kts 110°
2026-05-04 16:03 40.11381 32.98734 3112 ft 2 kts 58°
2026-05-04 16:03 40.11374 32.98725 3112 ft 0 kts 39°
2026-05-04 16:04 40.11398 32.98750 3112 ft 11 kts 39°
2026-05-04 16:05 40.11467 32.98818 3112 ft 14 kts 37°
2026-05-04 16:05 40.11545 32.98895 3112 ft 15 kts 37°
2026-05-04 16:05 40.11643 32.98909 3112 ft 8 kts 312°
2026-05-04 16:06 40.11679 32.98851 3111 ft 6 kts 307°
2026-05-04 16:06 40.11687 32.98837 3111 ft 2 kts 307°
2026-05-04 16:07 40.11703 32.98810 3111 ft 3 kts 307°
2026-05-04 16:07 40.11710 32.98798 3111 ft 0 kts 307°
2026-05-04 16:08 40.11843 32.98559 3112 ft 9 kts 306°
2026-05-04 16:09 40.11943 32.98527 3112 ft 0 kts 30°
2026-05-04 16:10 40.12024 32.98605 3113 ft 44 kts 36°
2026-05-04 16:11 40.14371 33.00952 3788 ft 204 kts 35°
2026-05-04 16:11 40.15512 33.02156 4684 ft 210 kts 34°
2026-05-04 16:12 40.19097 33.05941 6486 ft 242 kts 36°
2026-05-04 16:12 40.20151 33.12012 8475 ft 260 kts 117°
2026-05-04 16:13 40.18012 33.15765 10001 ft 258 kts 129°
2026-05-04 16:13 40.15738 33.19437 11198 ft 262 kts 129°
2026-05-04 16:14 40.13361 33.23071 12455 ft 265 kts 146°
2026-05-04 16:14 40.09791 33.24124 13618 ft 270 kts 173°
2026-05-04 16:15 40.04155 33.24972 15334 ft 272 kts 172°
2026-05-04 16:16 40.00336 33.25592 16235 ft 283 kts 172°
2026-05-04 16:16 39.94496 33.26576 17973 ft 284 kts 172°
2026-05-04 16:17 39.90531 33.27253 18828 ft 289 kts 172°
2026-05-04 16:18 39.84577 33.28275 20285 ft 291 kts 172°
2026-05-04 16:18 39.82537 33.28626 20584 ft 296 kts 172°
2026-05-04 16:19 39.76390 33.29682 21682 ft 308 kts 172°
2026-05-04 16:19 39.72095 33.30418 22551 ft 310 kts 172°
2026-05-04 16:20 39.65620 33.31527 23664 ft 317 kts 172°
2026-05-04 16:20 39.61225 33.32278 23863 ft 320 kts 172°
2026-05-04 16:21 39.54522 33.33423 24676 ft 327 kts 172°
2026-05-04 16:22 39.50026 33.34189 24844 ft 329 kts 172°
2026-05-04 16:22 39.43146 33.35360 24871 ft 334 kts 172°
2026-05-04 16:23 39.36416 33.37521 24855 ft 335 kts 150°
2026-05-04 16:24 39.28498 33.43763 24859 ft 333 kts 148°
2026-05-04 16:25 39.24864 33.46643 24853 ft 332 kts 149°
2026-05-04 16:27 39.23429 33.47774 24859 ft 333 kts 149°
2026-05-04 16:28 39.17443 33.52470 24870 ft 337 kts 149°
2026-05-04 16:28 39.11398 33.57192 24879 ft 341 kts 149°
2026-05-04 16:29 39.02712 33.63956 24886 ft 391 kts 149°
2026-05-04 16:30 38.95413 33.69625 24875 ft 427 kts 150°
2026-05-04 16:31 38.90200 33.73665 24884 ft 446 kts 150°
2026-05-04 16:31 38.82014 33.79997 24900 ft 470 kts 150°
2026-05-04 16:32 38.73658 33.86448 24368 ft 453 kts 150°
2026-05-04 16:33 38.68408 33.90493 23871 ft 428 kts 150°
2026-05-04 16:33 38.63387 33.94350 23386 ft 417 kts 151°
2026-05-04 16:34 38.59191 33.97566 22939 ft 426 kts 151°
2026-05-04 16:34 38.55826 34.00145 22575 ft 424 kts 150°
2026-05-04 16:35 38.48258 34.05926 21765 ft 421 kts 151°
2026-05-04 16:35 38.41552 34.11016 21068 ft 419 kts 151°
2026-05-04 16:36 38.39039 34.12920 20811 ft 419 kts 151°
2026-05-04 16:36 38.34011 34.16729 20301 ft 420 kts 151°
2026-05-04 16:37 38.29016 34.20508 19800 ft 420 kts 151°
2026-05-04 16:37 38.26486 34.22420 19568 ft 424 kts 151°
2026-05-04 16:37 38.21386 34.26269 19498 ft 427 kts 151°
2026-05-04 16:38 38.16286 34.30112 19492 ft 427 kts 152°
2026-05-04 16:39 38.08612 34.35884 19506 ft 427 kts 151°
2026-05-04 16:39 38.03514 34.39709 19477 ft 426 kts 151°
2026-05-04 16:40 37.98541 34.43438 18954 ft 403 kts 151°
2026-05-04 16:40 37.93835 34.46961 18407 ft 382 kts 152°
2026-05-04 16:41 37.89350 34.50312 17881 ft 372 kts 151°
2026-05-04 16:41 37.82694 34.55393 17081 ft 371 kts 150°
2026-05-04 16:42 37.76076 34.60451 16309 ft 372 kts 150°
2026-05-04 16:43 37.71639 34.63831 15795 ft 371 kts 150°
2026-05-04 16:43 37.67203 34.67206 15296 ft 372 kts 151°
2026-05-04 16:43 37.65014 34.68869 15069 ft 371 kts 151°
2026-05-04 16:44 37.55733 34.74119 14064 ft 363 kts 169°
2026-05-04 16:45 37.50813 34.75523 13595 ft 361 kts 168°
2026-05-04 16:46 37.43524 34.77721 12765 ft 357 kts 168°
2026-05-04 16:46 37.38737 34.79195 12228 ft 354 kts 168°
2026-05-04 16:47 37.33957 34.80667 11919 ft 352 kts 168°
2026-05-04 16:47 37.29231 34.82121 11548 ft 352 kts 168°
2026-05-04 16:48 37.22282 34.84260 10663 ft 334 kts 167°
2026-05-04 16:48 37.20031 34.84952 10357 ft 330 kts 168°
2026-05-04 16:49 37.15627 34.86305 9819 ft 320 kts 168°
2026-05-04 16:49 37.11492 34.87574 9792 ft 293 kts 168°
2026-05-04 16:50 37.07650 34.88751 9428 ft 281 kts 168°
2026-05-04 16:50 37.03860 34.89910 8791 ft 280 kts 167°
2026-05-04 16:51 37.00084 34.91064 8221 ft 277 kts 167°
2026-05-04 16:51 36.98220 34.91634 7944 ft 275 kts 167°
2026-05-04 16:51 36.94544 34.92744 7391 ft 271 kts 171°
2026-05-04 16:52 36.91045 34.91609 6843 ft 264 kts 212°
2026-05-04 16:52 36.89482 34.90404 6557 ft 264 kts 212°
2026-05-04 16:53 36.86369 34.87988 5994 ft 262 kts 212°
2026-05-04 16:53 36.81819 34.84523 5467 ft 246 kts 212°
2026-05-04 16:54 36.80376 34.83431 5354 ft 238 kts 212°
2026-05-04 16:55 36.75031 34.83931 4574 ft 216 kts 124°
2026-05-04 16:55 36.73467 34.87143 4125 ft 217 kts 122°
2026-05-04 16:56 36.71893 34.90379 3649 ft 218 kts 119°
2026-05-04 16:56 36.73082 34.94790 3006 ft 189 kts 24°
2026-05-04 16:57 36.74252 34.95578 2823 ft 191 kts 31°
2026-05-04 16:57 36.76472 34.97301 2379 ft 182 kts 31°
2026-05-04 16:58 36.79746 34.99803 1903 ft 192 kts 30°
2026-05-04 16:58 36.80872 35.00671 1686 ft 185 kts 31°
2026-05-04 16:59 36.82859 35.02214 1232 ft 154 kts 31°
2026-05-04 17:00 36.86413 35.04971 394 ft 147 kts 31°
2026-05-04 17:00 36.88928 35.06954 40 ft 119 kts 30°
2026-05-04 17:01 36.89827 35.07572 44 ft 43 kts
2026-05-04 17:01 36.89955 35.07446 46 ft 14 kts 217°
2026-05-04 17:02 36.89659 35.07222 43 ft 34 kts 210°
2026-05-04 17:02 36.89435 35.07062 44 ft 11 kts 215°
2026-05-04 17:03 36.89397 35.06986 44 ft 11 kts 279°